Regional Weather Roundup
Issued by NWS

Home | Current Version | Previous Version | Graphics & Text | Print | Product List | Glossary On
Versions: 1 2 3 4 5 6 7 8 9 10 11 12 13 14 15 16 17 18 19 20 21 22 23 24 25 26 27 28 29 30 31 32 33 34 35 36 37 38 39 40 41 42 43 44 45 46 47 48 49 50
000
ASUS45 KPSR 022110
RWRAZ

ARIZONA HOURLY REGIONAL WEATHER ROUNDUP
NATIONAL WEATHER SERVICE PHOENIX AZ
200 PM MST TUE JUN 02 2015

NOTE: FAIR INDICATES FEW OR NO CLOUDS BELOW 12,000 FEET WITH NO
SIGNIFICANT WEATHER AND/OR OBSTRUCTIONS TO VISIBILITY.

AZZ001>003-036-022200-
NORTHWEST ARIZONA

CITY           SKY/WX    TMP DP  RH WIND       PRES   REMARKS
BULLHEAD CITY  SUNNY     99  25   7 S15G26    29.78F
KINGMAN        SUNNY     90  19   7 SW24G32   29.94F
$$

AZZ004>008-015-016-018-022200-
NORTH CENTRAL ARIZONA

CITY           SKY/WX    TMP DP  RH WIND       PRES   REMARKS
GRAND CANYON   SUNNY     80  18  10 S15G28    30.13F
WILLIAMS       SUNNY     77  18  10 S16G26    30.22F
PRESCOTT       SUNNY     84  24  11 S16G23    30.07F
FLAGSTAFF      SUNNY     74  27  17 SW28G35   30.18F
PAYSON         SUNNY     84  23  10 SW12G22   30.12S
PAGE           SUNNY     89  16   7 VRB6      29.92F
$$

AZZ009>014-017-022200-
NORTHEAST ARIZONA

CITY           SKY/WX    TMP DP  RH WIND       PRES   REMARKS
WINSLOW        SUNNY     90  21   8 SW22G30   30.04F
SAINT JOHNS    SUNNY     88  17   7 SW16G22   30.06F
WINDOW ROCK    SUNNY     82  21  10 SW15G23   30.16F
SHOW LOW       SUNNY     81  23  12 S16G24    30.16F
$$

AZZ023-022200-
GREATER PHOENIX AREA

CITY           SKY/WX    TMP DP  RH WIND       PRES   REMARKS
PHOENIX        SUNNY    101  30   8 VRB3      29.81F
BUCKEYE        SUNNY     99  28   8 S13       29.83F
GLENDALE       SUNNY    100  25   7 SW6       29.84F
DEER VALLEY    SUNNY     98  27   8 SW8G20    29.85F
SCOTTSDALE     SUNNY     98  27   8 SW9G17    29.86F
MESA-FALCON      N/A    100  32   9 S6        29.85F
MESA-GATEWAY   MOSUNNY   99  37  12 SW6G17    29.87F
CHANDLER       SUNNY     99  34  10 SW12G17   29.84F
$$

AZZ027-028-022200-
SOUTHWEST MARICOPA COUNTY AND PINAL COUNTY

CITY           SKY/WX    TMP DP  RH WIND       PRES   REMARKS
CASA GRANDE    SUNNY     99  37  12 CALM      29.84F
$$

AZZ503-504-507>509-022200-
SOUTHEAST ARIZONA

CITY           SKY/WX    TMP DP  RH WIND       PRES   REMARKS
TUCSON         SUNNY    100  22   6 W12G20    29.93F
RYAN FIELD       N/A    102  30   8 SW12G22   29.91F
NOGALES        LGT RAIN  95  26   8 SW16G31   30.05F
DOUGLAS        SUNNY     95  23   7 SW22G30   30.03F
SAFFORD        PTSUNNY   98  22   6 N7        29.92F
$$

AZZ020-021-025-026-031-022200-
SOUTHWEST ARIZONA

CITY           SKY/WX    TMP DP  RH WIND       PRES   REMARKS
YUMA           SUNNY     99  25   7 W10G21    29.81F
$$

CAZ031-033-041-043-047-048-061-022200-
SOUTHERN CALIFORNIA

CITY           SKY/WX    TMP DP  RH WIND       PRES   REMARKS
DOWNTOWN L.A.  SUNNY     74  58  57 VRB5      29.96S
L.A. AIRPORT   MOSUNNY   68  58  70 W16       29.98F
SAN DIEGO      MOSUNNY   70  55  59 W8        30.00F
BURBANK        SUNNY     77  55  46 S9        29.95F
ONTARIO        SUNNY     82  49  31 W14G20    29.94F
RIVERSIDE      SUNNY     83  52  34 W10G17    29.93F
PALM SPRINGS   SUNNY     96  24   7 E5        29.81F
EL CENTRO NAS  MOSUNNY  100  25   7 SW21G28   29.80F
IMPERIAL       SUNNY     99  28   8 SW17      29.78F
BLYTHE         SUNNY     97  26   8 SE15      29.78F
NEEDLES        SUNNY     99  18   5 VRB5G17   29.79F
$$

NVZ020-UTZ003-022200-
SOUTHERN NEVADA-UTAH

CITY           SKY/WX    TMP DP  RH WIND       PRES   REMARKS
LAS VEGAS      SUNNY     92  20   7 S15G26    29.79F
SALT LAKE CITY MOSUNNY   79  44  28 N12G21    29.93F
$$

NMZ009-TXZ055-022200-
NEW MEXICO-WEST TEXAS

CITY           SKY/WX    TMP DP  RH WIND       PRES   REMARKS
ALBUQUERQUE    MOSUNNY   87  20   8 SW10      30.05F
EL PASO        MOSUNNY   98  24   7 SW16G26   29.97F
$$


........................KEY........................
SKY/WX - SKY CONDITION/WEATHER
TMP    - TEMPERATURE IN FAHRENHEIT
DP     - DEW POINT IN FAHRENHEIT
RH     - RELATIVE HUMIDITY IN PERCENT
WIND   - DIRECTION AND SPEED IN MILES PER HOUR (MPH)
VRB    - VARIABLE WIND DIRECTION
PRES   - MEAN SEA LEVEL PRESSURE IN INCHES OF MERCURY
         F - FALLING PRESSURE   R - RISING PRESSURE
         S - STEADY PRESSURE
VSB    - VISIBILITY IN MILES
HX     - HEAT INDEX IN FAHRENHEIT
WCI    - WIND CHILL INDEX IN FAHRENHEIT
TC     - TEMPERATURE IN CELSIUS WHICH IS ALSO KNOWN AS
         TEMPERATURE IN CENTIGRADE
AFB    - AIR FORCE BASE
         LUKE AFB IS LUKE AIR FORCE BASE
         DAVIS-MONTHAN IS DAVIS-MONTHAN AIR FORCE BASE
NAS    - NAVAL AIR STATION
         EL CENTRO NAS IS EL CENTRO NAVAL AIR STATION
N/A    - NOT AVAILABLE



USA.gov is the U.S. government's official web portal to all federal, state and local government web resources and services.